Regional Weather Roundup
Issued by NWS

Home | Current Version | Previous Version | Graphics & Text | Print | Product List | Glossary On
Versions: 1 2 3 4 5 6 7 8 9 10 11 12 13 14 15 16 17 18 19 20 21 22 23 24 25 26 27 28 29 30 31 32 33 34 35 36 37 38 39 40 41 42 43 44 45 46 47 48 49 50
000
ASUS43 KTOP 250159
RWRKS

WEATHER ROUNDUP FOR KANSAS
NATIONAL WEATHER SERVICE GOODLAND KS
900 PM CDT FRI MAR 24 2017

NOTE:  "FAIR" INDICATES FEW OR NO CLOUDS BELOW 12,000 FEET WITH NO
SIGNIFICANT WEATHER AND/OR OBSTRUCTIONS TO VISIBILITY.

KSZ001>006-013>018-027>032-041>047-250300-
NORTHWEST KANSAS

CITY           SKY/WX    TMP DP  RH WIND       PRES   REMARKS
GOODLAND       LGT RAIN  39  37  92 N22G31    30.06S WCI  29
HAYS             N/A     42  39  89 N18       29.99R
HILL CITY      CLOUDY    43  39  86 N18G26    30.03R
RUSSELL        CLOUDY    42  39  89 N20G26    29.96R
$$

KSZ061>065-074>080-084>089-250300-
SOUTHWEST KANSAS

CITY           SKY/WX    TMP DP  RH WIND       PRES   REMARKS
DODGE CITY     CLOUDY    43  40  89 N25G31    29.97R
ELKHART          N/A     41  28  60 N20         N/A
GARDEN CITY    CLOUDY    42  38  85 N22G31    29.99S
GREAT BEND     CLOUDY    44  40  85 N25       29.94R
LIBERAL        CLOUDY    45  37  76 N22       30.00R
$$

KSZ066>073-081>083-090>101-250300-
SOUTHEAST KANSAS

CITY           SKY/WX    TMP DP  RH WIND       PRES   REMARKS
CHANUTE        CLOUDY    61  56  83 SE7       29.78R
COFFEYVILLE    CLEAR     60  56  86 E6        29.77R
HUTCHINSON     CLOUDY    50  47  89 N22G31    29.86R
MEDICINE LODGE   N/A     52  44  74 N26G33    29.85R
NEWTON         LGT RAIN  51  47  86 N24G30    29.84R
PARSONS        CLEAR     62  56  80 E5        29.78R
WICHITA INTL   CLOUDY    57  48  72 N20       29.80R
WICHITA JABRA  CLOUDY    55  49  80 N15       29.82R
WINFIELD       PTCLDY    65  53  65 E3        29.76R
$$

KSZ007>012-019>026-033>040-048>060-102>105-250300-
NORTHEAST KANSAS

CITY           SKY/WX    TMP DP  RH WIND       PRES   REMARKS
CONCORDIA      CLOUDY    43  41  93 N20G25    29.94R
EMPORIA        CLOUDY    51  48  89 NW7       29.84R THUNDER
LAWRENCE       CLOUDY    61  58  90 E8        29.83R
MANHATTAN      HVY RAIN  50  48  93 N10G17    29.90R FOG
OLATHE IND     CLOUDY    59  56  89 SE5       29.84R
OLATHE EXE     CLOUDY    58  57  97 E6        29.83R
SALINA         LGT RAIN  49  45  86 N18G29    29.91S
TOPEKA BILLARD TSTM      59  53  80 W8G21     29.83R
TOPEKA FORBES  LGT RAIN  57  51  80 W17       29.82R
$$




USA.gov is the U.S. government's official web portal to all federal, state and local government web resources and services.